Portada
METAR-TAF:

METAR-TAF

Aeroports :

Ballina, Austràlia

latitud: 28-50-00S, longitud: 153-33-42E, altitud: 2 m

Observació

L'informe es va fer fa 50 minuts, a les 06:00 UTC
Vent 11 kt del Sud/Sud-Est
Temperatura 25°C
Humitat 79%
Pressió 1010 hPa
Visibilitat 10 km o més
Núvols disperses a una alçada de 3900 ft
Núvols disperses a una alçada de 4800 ft

METAR: YBNA 070600Z AUTO 15011KT 9999 // SCT039 SCT048 25/21 Q1010

Hora: 17:50 (06:50 UTC)


TAF: manca

Observacions i pronòstics meteorològics de més de 4000 aeroports (METAR i TAF).

Les estacions disponibles són els punts grocs i vermells al mapa.

Posi el ratolí al punt desitjat per veure el nom de l'estació.

Feu clic per veure les observacions i els pronòstics meteorològics.

Per canviar el mapa: feu clic els botons verds amb una creu de color negre per apropar; al botó verd amb un guió per allunyar la imatge; o en les fletxes verdes per a mapes adjacents.


METAR-TAF: